TIME,DELAY(SENSOR),PRES,T(CTD),SAL,OXYGEN,RAWTEMP,T(OPTODE),TCPHASE,FLUOR,BETA(BETA700),BETA(BETA412),BETA(BETA440),CDOM,C(CSC),ED(ED411.90),ED(ED443.80),ED(ED489.40),ED(ED554.70),LU(LU412.20),LU(LU443.80),LU(LU489.40),LU(LU555.00),COMP,TILTX,TILTX(TILTY),CHECK
1349450020,5806,497.2900085449219000,16.9172992706298830,36.3493995666503900,219.7182006835937500,191.3305969238281200,16.9096698760986330,31.9951400756835940,50,100,87,63,51,13148,2146956297,2147513901,2147269385,2147469065,2147085577,2146955181,2147658240,2147115620,1046,-1,9,47849
1349450151,5807,486.1700134277344000,17.0652999877929700,36.3801994323730500,223.2153930664062500,186.0803070068359400,17.0679702758789060,31.7401103973388670,50,99,87,63,52,13147,2146957750,2147514148,2147269110,2147472000,2147085284,2146946642,2147657618,2147116662,854,-1,8,48022
1349450272,5804,475.5400085449219000,17.2518997192382800,36.4164009094238300,226.6925964355468800,179.9293975830078000,17.2534599304199220,31.4779491424560550,50,100,86,63,51,13145,2146959981,2147515986,2147266230,2147469220,2147085458,2146952795,2147661394,2147123136,3334,-1,8,26114
1349450395,5805,464.5000000000000000,17.3502998352050780,36.4347991943359400,228.3686981201172000,176.7716064453125000,17.3487091064453120,31.3505191802978500,50,100,87,63,52,13147,2146958208,2147515410,2147268214,2147469394,2147086957,2146952996,2147658230,2147118016,3373,-2,8,5408
1349450516,5805,453.4200134277344000,17.4577007293701170,36.4566993713378900,230.4734954833984400,173.0435943603515600,17.4611797332763670,31.1947898864746100,51,101,88,63,51,13147,2146959104,2147512996,2147264283,2147468507,2147084278,2146954596,2147656704,2147123995,3017,-2,8,7490
1349450640,5802,441.9899902343750000,17.5487995147705080,36.4738998413085940,231.9497985839843800,170.2770996093750000,17.5446491241455080,31.0845603942871100,51,101,87,63,50,13144,2146957056,2147517705,2147264685,2147464896,2147084571,2146954505,2147657901,2147131428,2224,-1,8,34538
1349450761,5805,430.8399963378906000,17.6373004913330080,36.4910011291503900,233.1076965332031200,167.4095001220703000,17.6311798095703120,30.9891395568847660,51,100,87,62,50,13146,2146960841,2147516324,2147265161,2147464877,2147087670,2146956452,2147654336,2147128082,1471,-2,9,60238
1349450882,5807,419.6900024414062500,17.6993999481201170,36.5023002624511700,233.8260955810547000,165.3509063720703000,17.6933097839355470,30.9261608123779300,50,101,86,63,51,13145,2146959341,2147514203,2147265206,2147464475,2147086857,2146954194,2147654537,2147124022,836,-2,8,7330
1349450994,5807,409.4299926757812500,17.7588996887207030,36.5126991271972660,234.6224060058593800,163.3894042968750000,17.7525196075439450,30.8613395690917970,50,99,87,62,53,13143,2146957961,2147517760,2147264585,2147467181,2147076233,2146955154,2147653641,2147126729,352,-1,8,49326
1349451115,5807,398.7300109863281000,17.8241996765136720,36.5247001647949200,235.5588073730468800,161.2070007324218800,17.8183994293212900,30.7868003845214840,51,101,88,63,50,13143,2146960146,2147514514,2147261101,2147464338,2147086427,2146957622,2147654244,2147126564,2550,-1,8,23778
1349451250,5805,386.8299865722656000,17.8974990844726560,36.5373001098632800,236.3356933593750000,158.7709045410156200,17.8919391632080080,30.7169208526611330,50,100,86,63,51,13145,2146957074,2147511835,2147262491,2147464502,2147085476,2146959725,2147653010,2147128100,2163,-1,8,7490
1349451371,5805,376.4599914550781000,17.9591999053955080,36.5466995239257800,236.7050933837890600,156.5903015136718800,17.9577903747558600,30.6697101593017580,50,103,87,63,52,13141,2146958089,2147515401,2147263460,2147463067,2147085302,2146955968,2147655222,2147130532,1630,-1,8,27592
1349451503,5808,365.4100036621094000,18.0070991516113280,36.5531997680664060,236.2985992431640600,155.0973968505859400,18.0028705596923830,30.6694602966308600,50,101,86,63,51,13142,2146957860,2147516690,2147261037,2147463424,2147087780,2146958784,2147658486,2147131072,1169,-2,8,55832
1349451637,5806,354.4500122070312500,18.0464992523193360,36.5597000122070300,236.3329010009765600,153.6853942871093800,18.0455207824707030,30.6488208770751950,50,101,87,64,51,13143,2146954075,2147517604,2147263744,2147463744,2147087478,2146960530,2147657216,2147128146,575,-1,8,58298
1349451769,5805,343.9700012207031000,18.0974006652832030,36.5671005249023440,236.2312927246093800,152.0312042236328000,18.0954799652099600,30.6316204071044920,51,101,86,63,52,13145,2146958464,2147513846,2147260662,2147462189,2147084562,2146956150,2147658779,2147128850,3042,-2,8,39266
1349451915,5806,332.4899902343750000,18.1378002166748050,36.5722999572753900,235.9147949218750000,150.6811065673828000,18.1362590789794920,30.6287193298339840,50,99,86,63,51,13141,2146955392,2147516653,2147263168,2147463360,2147077814,2146960923,2147656466,2147126518,2166,-1,8,20871
1349452058,5803,321.3399963378906000,18.2052001953125000,36.5786018371582000,234.2693939208984400,148.5348968505859400,18.2010993957519530,30.6793994903564450,50,102,87,62,51,13140,2146956489,2147516690,2147262171,2147459794,2147083291,2146962194,2147662939,2147126070,1396,-1,9,37082
1349452190,5805,310.4899902343750000,18.2595996856689450,36.5786018371582000,232.7841949462890600,146.4163055419922000,18.2651195526123050,30.7232093811035160,50,102,87,63,51,13140,2146959716,2147515821,2147265773,2147460187,2147083154,2146961526,2147658532,2147125056,917,-2,8,13216
1349452302,5806,299.3099975585937500,18.3441009521484380,36.5875015258789060,231.7872924804687500,144.0556945800781200,18.3364505767822270,30.7401103973388670,50,103,86,63,52,13140,2146954468,2147516196,2147265718,2147462518,2147076278,2146969590,2147662866,2147127606,124,-1,8,25848
1349452412,5804,287.8699951171875000,18.3980007171630860,36.5912017822265600,230.9781951904297000,142.2310028076172000,18.3916091918945300,30.7555198669433600,50,102,87,63,51,13141,2146957604,2147513481,2147264676,2147458925,2147077613,2146963986,2147666962,2147129243,2863,-1,8,58217
1349452524,5806,276.2999877929687500,18.4773006439209000,36.5946998596191400,229.3316040039062500,139.5435028076172000,18.4728507995605470,30.8007392883300780,50,101,88,62,52,13138,2146956498,2147514221,2147263643,2147461504,2147077897,2146967387,2147674285,2147127990,2386,-1,8,55886
1349452634,5805,265.1099853515625000,18.5737991333007800,36.5993003845214840,227.7411041259765600,136.2760009765625000,18.5716400146484380,30.8359794616699220,51,103,87,63,52,13137,2146954989,2147516068,2147264996,2147460626,2147084169,2146971739,2147683145,2147125010,2469,-1,8,61989
1349452744,5806,254.1499938964843800,18.6830005645751950,36.6011009216308600,226.4371948242187500,132.7615966796875000,18.6779308319091800,30.8540706634521500,51,101,87,64,51,13139,2146958610,2147514276,2147264585,2147459593,2147074697,2146973906,2147693467,2147128740,1826,-1,9,63689
1349452863,5807,243.8800048828125000,18.7297000885009770,36.6032981872558600,228.2306060791015600,131.2149047851562500,18.7247200012207030,30.7440395355224600,50,102,88,63,51,13134,2146959076,2147512859,2147264018,2147456557,2147085339,2146982674,2147706011,2147126848,1063,-2,8,3760
1349453017,5805,232.7500000000000000,18.8929004669189450,36.6006011962890600,230.3459930419922000,126.0130996704101600,18.8821201324462900,30.5707607269287100,50,100,86,63,51,13138,2146959890,2147514176,2147263241,2147460187,2147080237,2146998454,2147730112,2147128841,583,-1,9,52895
1349453169,5808,220.4499969482422000,19.0293998718261720,36.5946006774902340,232.9606018066406200,121.2835006713867200,19.0252895355224600,30.3809795379638670,51,101,87,63,51,13138,2146959131,2147513974,2147266569,2147457060,2147080420,2147013138,2147761133,2147131894,558,-1,9,48070
1349453290,5805,208.6999969482422000,19.1207008361816400,36.5830001831054700,239.3168029785156200,117.8059005737304700,19.1305999755859380,30.0337104797363280,50,101,87,63,51,13140,2146957440,2147513508,2147267446,2147458130,2147081197,2147035721,2147807131,2147136694,3316,-1,9,47746
1349453400,5804,198.3000030517578000,19.2099990844726560,36.5802001953125000,243.0901947021484400,115.4497985839843800,19.2019691467285160,29.8284702301025400,52,102,87,63,51,13138,2146956992,2147516022,2147268361,2147455844,2147089142,2147058715,2147858569,2147137892,2937,-1,9,57103
1349453474,5806,191.6100006103515600,19.2576007843017580,36.5838012695312500,243.4707031250000000,113.8277969360351600,19.2511196136474600,29.7899608612060550,52,101,88,63,52,13137,2146957787,2147518107,2147271808,2147456347,2147091373,2147087844,2147902317,2147143451,2791,-1,9,59004
1349453529,5804,186.9799957275390600,19.2740001678466800,36.5786018371582000,244.7599029541015600,113.3556976318359400,19.2654209136962900,29.7250194549560550,52,103,87,63,51,13136,2146958930,2147519140,2147272393,2147459958,2147097947,2147108242,2147937362,2147145398,2459,-1,9,27339
1349453584,5802,182.4499969482422000,19.2886009216308600,36.5726013183593750,245.8800964355468800,112.5578002929687500,19.2896003723144530,29.6638393402099600,53,103,86,64,51,13137,2146957394,2147521810,2147274752,2147452937,2147093970,2147132562,2147975030,2147146377,1936,-2,9,31297
1349453639,5805,178.0000000000000000,19.3218002319335940,36.5778999328613300,246.7864074707031200,111.6501007080078100,19.3171100616455080,29.6112003326416000,54,101,87,63,50,13138,2146957970,2147521014,2147276992,2147452315,2147100050,2147162944,2148031808,2147150089,1528,-2,9,53106
1349453694,5804,173.6000061035156200,19.3269004821777340,36.5736007690429700,247.4394989013672000,111.5683975219726600,19.3195800781250000,29.5809593200683600,55,103,87,64,51,13135,2146958226,2147521408,2147279469,2147452525,2147105472,2147188818,2148079478,2147151890,1278,-2,9,2456
1349453749,5807,169.4299926757812500,19.3526992797851560,36.5765991210937500,247.5363006591797000,110.5230026245117200,19.3512592315673830,29.5630798339843750,56,105,87,62,51,13132,2146955236,2147522724,2147280365,2147454171,2147110976,2147220004,2148131931,2147155602,912,-1,9,40848
1349453827,5805,164.1999969482422000,19.3939990997314450,36.5806007385253900,247.7855072021484400,109.3522033691406200,19.3867492675781250,29.5367107391357420,57,102,86,63,50,13134,2146955949,2147524425,2147282752,2147453284,2147122075,2147266496,2148206866,2147159954,792,-2,9,60733
1349453893,5807,160.6000061035156200,19.4074001312255860,36.5783004760742200,248.3506011962890600,108.7245025634765600,19.4057807922363280,29.5033493041992200,63,105,87,63,51,13131,2146957988,2147527332,2147285302,2147455789,2147130980,2147305170,2148264914,2147164726,448,-1,8,35959
1349453970,5806,156.6699981689453000,19.4426994323730470,36.5806999206543000,247.8403930664062500,107.7030029296875000,19.4367504119873050,29.5129795074462900,62,106,87,63,51,13130,2146959515,2147526884,2147289545,2147453760,2147138614,2147352850,2148336246,2147165924,214,-1,9,2430
1349454058,5804,152.3500061035156200,19.4853992462158200,36.5853004455566400,247.9158020019531200,106.3210983276367200,19.4786491394042970,29.4918098449707030,63,106,86,64,51,13129,2146960146,2147527542,2147291538,2147454427,2147149842,2147407067,2148426230,2147174610,3201,-2,9,33248
1349454137,5805,148.5399932861328000,19.5393009185791000,36.5882987976074200,248.1956939697265600,104.6222000122070300,19.5301609039306640,29.4574394226074220,68,107,87,64,51,13123,2146960283,2147529929,2147294025,2147452315,2147161398,2147468946,2148514450,2147179849,2799,-1,9,49138
1349454214,5805,144.7599945068359400,19.6005992889404300,36.5940017700195300,249.0691070556640600,102.4085006713867200,19.5973091125488280,29.3900394439697270,70,110,88,63,52,13119,2146958144,2147535305,2147297481,2147455716,2147187529,2147534619,2148631414,2147188379,2548,-2,9,36270
1349454280,5803,141.3999938964843800,19.6478996276855470,36.5978012084960940,248.8238983154297000,101.0899963378906200,19.6373100280761720,29.3840694427490230,72,108,87,64,52,13119,2146960073,2147536960,2147303094,2147455707,2147203840,2147602825,2148724845,2147193508,2922,-2,9,16948
1349454357,5807,137.3999938964843800,19.7873001098632800,36.5987014770507800,249.7371978759765600,96.4572067260742200,19.7778892517089840,29.2840900421142580,83,110,89,64,50,13110,2146958445,2147538541,2147308854,2147453092,2147226770,2147685714,2148855369,2147207314,2687,-2,9,26305
1349454437,5804,133.3200073242187500,19.8698005676269530,36.6069984436035160,250.5522003173828000,93.6430969238281200,19.8633193969726560,29.2120800018310550,95,113,88,64,51,13097,2146961234,2147543899,2147312914,2147456676,2147266459,2147803620,2149029595,2147217417,2401,-1,9,25262
1349454514,5804,129.1900024414062500,19.9657993316650400,36.6180000305175800,250.2519073486328000,90.4319534301757800,19.9608402252197270,29.1839809417724600,98,116,88,65,50,13090,2146965677,2147546294,2147324251,2147452196,2147311670,2147943945,2149239789,2147234112,2533,-1,9,30644
1349454580,5806,125.5500030517578100,20.0258007049560550,36.6194992065429700,249.5184020996093800,88.2806930541992200,20.0261898040771500,29.1889095306396500,101,117,88,63,51,13084,2146966281,2147551917,2147331611,2147451126,2147362130,2148077001,2149422180,2147247744,2700,-2,9,39773
1349454657,5805,121.3700027465820300,20.1305999755859380,36.6371994018554700,250.6878967285156200,85.2030868530273400,20.1197109222412100,29.0981693267822270,105,117,90,64,50,13081,2146969801,2147557577,2147332416,2147453037,2147390628,2148072557,2149288265,2147248841,2603,-2,9,27421
1349454737,5801,117.1600036621093800,20.2159004211425780,36.6427001953125000,250.5603942871093800,82.3745269775390600,20.2056903839111330,29.0675601959228500,111,117,90,63,51,13079,2146974985,2147571648,2147362285,2147455634,2147549321,2148603702,2150125878,2147308480,2576,-2,9,9794
1349454814,5804,113.3700027465820300,20.3094005584716800,36.6515998840332000,252.1029052734375000,79.2348785400390600,20.3011703491210940,28.9604301452636720,112,119,89,63,52,13077,2146978651,2147585499,2147383094,2147458057,2147687762,2148936932,2150558345,2147344128,2885,-2,9,50159
1349454891,5809,109.7600021362304700,20.3472995758056640,36.6411018371582000,252.5854949951172000,77.4415969848632800,20.3557090759277340,28.9166698455810550,120,118,88,64,51,13066,2146988544,2147598930,2147419510,2147456896,2147842880,2149283821,2150988379,2147385344,52,-2,9,36779
1349454979,5808,105.9899978637695300,20.3932991027832030,36.6426010131835940,252.9685974121093800,76.0841064453125000,20.3970108032226560,28.8827896118164060,122,121,90,64,52,13063,2146998436,2147620178,2147459529,2147460123,2148077458,2149816027,2151650121,2147444141,105,-2,9,2812
1349455058,5800,102.9700012207031200,20.4990005493164060,36.6385002136230500,252.8495941162109400,72.8925323486328100,20.4941406250000000,28.8474998474121100,132,119,90,65,50,13054,2147006473,2147637988,2147473206,2147457764,2148282724,2150232164,2152135177,2147491273,3523,-2,9,2781
1349455190,5807,99.0899963378906200,20.7035999298095700,36.6580009460449200,254.4161071777343800,66.3029479980468800,20.6948108673095700,28.6967792510986330,142,125,90,64,52,13047,2147021942,2147673545,2147546934,2147464137,2148664466,2150973842,2153009572,2147576237,513,-2,9,20301
1349455267,5806,97.4700012207031200,20.8556995391845700,36.6749992370605500,255.2944030761718800,61.7495498657226560,20.8335800170898440,28.6017799377441400,145,123,90,64,51,13032,2147028900,2147689014,2147566217,2147463378,2148878454,2151368246,2153435785,2147620297,368,-1,9,43019
1349455376,5807,94.8899993896484400,20.9449005126953120,36.6619987487793000,257.8298950195312500,58.0341682434082000,20.9468708038330080,28.4478492736816400,133,121,90,65,51,13038,2147014043,2147639268,2147473645,2147455533,2148442413,2150059318,2151542290,2147465892,378,-2,9,18413
1349455431,5804,93.0500030517578100,21.0874004364013670,36.6744003295898440,259.6036987304687500,53.9122200012207000,21.0726203918457030,28.3220691680908200,126,121,90,64,51,13038,2146997622,2147596507,2147380178,2147451154,2148103341,2149046025,2150006619,2147342994,807,-2,9,61986
1349455497,5803,91.0800018310546900,21.2105007171630860,36.6915016174316400,260.5444946289062500,49.8177108764648440,21.1976203918457030,28.2318592071533200,111,119,93,64,52,13038,2147078272,2147768868,2147693010,2147465929,2149952009,2153252013,2155525193,2147836736,782,-2,9,63340
1349455563,5806,89.2699966430664000,21.3363990783691400,36.6880989074707000,261.4682922363281000,45.9907112121582000,21.3145103454589840,28.1459903717041000,112,120,90,64,51,13048,2147100068,2147804598,2147743524,2147473508,2150402852,2154085101,2156413961,2147927387,764,-1,9,57949
1349455664,5807,86.6900024414062500,21.6095008850097660,36.7442016601562500,266.3280944824219000,36.8210716247558600,21.5948791503906250,27.8342494964599600,94,117,88,64,50,13048,2147140525,2147868553,2147806144,2147472566,2151316342,2155623917,2157891894,2148079460,880,-1,9,16250
1349455719,5805,84.6100006103515600,21.6597003936767580,36.7471008300781250,270.1644897460937500,34.7708206176757800,21.6576194763183600,27.6559295654296880,93,119,91,65,50,13045,2147176886,2147919780,2147839332,2147475501,2152212288,2157090614,2159252352,2148204150,1098,-2,9,35416
1349455774,5803,82.4000015258789000,21.6942005157470700,36.6908988952636700,269.6292114257812500,34.0762901306152340,21.6788806915283200,27.6684799194335940,92,118,90,65,50,13044,2147216685,2147979300,2147868937,2147477138,2153256685,2158842203,2160901147,2148363318,1515,-2,9,32255
1349455829,5806,80.4199981689453100,21.7397003173828120,36.6771011352539060,266.5130920410156000,31.5816001892089840,21.7552509307861330,27.7622203826904300,93,119,91,63,50,13033,2147234788,2147996854,2147863296,2147475282,2153750372,2159558217,2161372964,2148418322,1993,-2,9,13959
1349455884,5805,78.5800018310546900,21.8593997955322270,36.6769981384277340,265.4335937500000000,28.5929107666015620,21.8467998504638670,27.7687091827392580,93,120,90,64,51,13027,2147284653,2148072804,2147947922,2147479323,2154944274,2161592320,2163309613,2148616384,2330,-2,9,28366
1349455939,5802,76.8600006103515600,21.9293003082275400,36.6787986755371100,265.3308105468750000,26.2228298187255860,21.9194202423095700,27.7437400817871100,91,119,90,65,50,13030,2147326299,2148128969,2148009060,2147484891,2155802249,2162913353,2164507931,2148752374,2222,-2,9,27199
1349456017,5805,73.9300003051757800,22.0165004730224600,36.6568984985351560,265.3182983398437500,22.6784801483154300,22.0280895233154300,27.7005004882812500,91,120,91,63,50,13029,2147416603,2148259254,2148179968,2147495780,2157742189,2165842514,2167291949,2149058496,1406,-1,9,35060
1349456072,5805,71.3799972534179700,22.2548999786376950,36.6534004211425800,266.4697875976562500,17.6133804321289060,22.1834907531738280,27.5921096801757800,84,122,90,66,50,13022,2147499757,2148374326,2148308013,2147503222,2159585170,2168422116,2169432740,2149317476,1302,-1,9,26557
1349456127,5806,69.3300018310546900,22.4330997467041000,36.6349983215332000,266.2911987304687500,11.2655296325683600,22.3784408569335940,27.5213508605957030,82,122,91,64,51,13025,2147565540,2148457133,2148343204,2147503972,2161233078,2170873938,2171544950,2149549577,1673,-1,9,18549
1349456182,5804,67.9400024414062500,22.5384998321533200,36.6301994323730500,267.2381896972656000,6.9680299758911130,22.5105495452880860,27.4309902191162100,84,125,91,64,50,13018,2147644461,2148562212,2148430537,2147508333,2163054601,2173579693,2173807597,2149782326,2072,-2,9,54207
1349456270,5805,66.4700012207031200,22.5953998565673830,36.6309013366699200,267.9613037109375000,4.4676389694213870,22.5874500274658200,27.3718490600585940,82,121,90,64,50,13018,2147731428,2148649654,2148522166,2147516196,2164835812,2175982902,2175821677,2149987419,2828,-2,9,35922
1349456360,5803,63.6800003051757800,22.6970996856689450,36.6301994323730500,267.8923950195312500,0.7689803838729858,22.7012901306152340,27.3293209075927730,74,124,92,65,50,13018,2147294363,2147950966,2147687808,2147462793,2154786102,2157858843,2156695195,2148066102,3517,-1,9,34355
1349456415,5808,61.2500000000000000,22.8831996917724600,36.6170005798339840,267.1794128417969000,-4.9837679862976070,22.8784904479980470,27.2874794006347660,74,124,90,65,50,13017,2148069366,2149078546,2149033334,2147576146,2171943926,2185176292,2182909558,2150901312,54,-1,9,22625
1349456470,5805,59.3699989318847660,23.0076999664306640,36.5960006713867200,267.6294860839844000,-9.0982408523559570,23.0053501129150400,27.2196598052978500,74,122,91,64,50,13016,2148177307,2149181668,2149101732,2147579273,2174386569,2187979931,2184855817,2151165156,3558,-2,9,64405
1349456525,5802,58.1500015258789060,23.2964992523193360,36.6180992126464840,266.8452148437500000,-16.4531707763671880,23.2323703765869140,27.1613998413085940,73,125,90,64,50,13018,2148277970,2149283602,2149078912,2147565476,2177061092,2191467410,2187552795,2151455707,3052,-2,9,10596
1349456648,5804,56.1599998474121100,23.5326004028320300,36.6390991210937500,268.4440917968750000,-25.5940895080566400,23.5149803161621100,26.9875297546386720,69,124,93,65,50,13020,2148361718,2149324699,2149064886,2147560996,2178418614,2191838016,2186644361,2151414838,3077,-1,9,59414
1349456800,5803,53.2599983215332000,24.0676002502441400,36.6281013488769500,267.6929016113281000,-39.3374900817871100,23.9409008026123050,26.8510799407959000,67,121,91,65,50,13015,2148239570,2149063378,2148702180,2147533632,2174742957,2183827227,2177523867,2150386797,3055,-1,9,1377
1349457025,5803,52.7400016784668000,24.6254005432128900,36.6152000427246100,270.3132934570312500,-60.7734489440918000,24.6077709197998050,26.4916095733642580,67,126,91,65,48,13013,2149189860,2150222546,2149742308,2147596096,2197344649,2214733421,2203675090,2153395968,2360,-2,9,25289
1349457142,5804,50.8800010681152340,24.7075004577636720,36.6239013671875000,270.4567871093750000,-63.2533798217773440,24.6851291656494140,26.4563999176025400,65,133,91,65,50,13014,2148572790,2149438592,2149030546,2147549321,2182208603,2192825024,2184493988,2151165074,1623,-2,9,12682
1349457390,5808,48.9599990844726560,24.9403991699218750,36.5372009277343750,260.1140136718750000,-70.6938705444336000,24.9175090789794920,26.7744693756103500,64,122,89,63,50,13014,2148024795,2148657325,2148195949,2147487954,2170563446,2174185645,2167006692,2149300781,1764,-1,10,31515
1349457507,5803,47.9799995422363300,25.0746002197265620,36.5153007507324200,249.3782958984375000,-75.2426528930664000,25.0597801208496100,27.1619892120361330,66,119,91,65,49,12992,2149769060,2150830491,2150290358,2147655497,2212076589,2229513206,2213198747,2154801344,1458,-1,9,26973
1349457599,5804,46.5699996948242200,25.1858005523681640,36.4972000122070300,247.1954956054687500,-78.2941818237304700,25.1553001403808600,27.2175807952880860,65,123,90,65,50,13008,2149855990,2150891821,2150314532,2147662729,2213211355,2229997184,2212953517,2154893750,1476,-1,9,39015
1349457668,5806,44.9300003051757800,25.3822002410888670,36.4906997680664060,244.4739990234375000,-84.3799362182617200,25.3460292816162100,27.2601890563964840,63,122,91,65,49,13009,2150241316,2151301869,2150648658,2147693705,2222510345,2240930880,2221288356,2156078418,1530,-2,9,51189
1349457797,5804,42.7999992370605500,25.6595001220703120,36.5326004028320300,250.2158050537109400,-93.9601669311523400,25.6468601226806640,26.8999691009521500,62,121,91,63,51,13001,2150749504,2151821348,2151309604,2147893065,2232813915,2251949339,2229167177,2157474011,1123,-2,10,35414
1349457913,5806,40.6899986267089840,25.9713001251220700,36.5750999450683600,254.3753051757812500,-104.4837036132812500,25.9781703948974600,26.6007804870605470,64,122,91,64,50,12999,2151232045,2152215634,2151334619,2147771675,2243520640,2261945179,2235576201,2158656996,1513,-2,10,11295
1349458185,5807,38.7200012207031250,26.7224998474121100,36.5770988464355500,249.7861938476562500,-127.7185974121093800,26.7129707336425780,26.5108394622802730,62,119,91,65,49,13000,2151921408,2152809846,2152095140,2148093540,2255481289,2273125092,2242021046,2159729408,1044,-2,9,355